星链-35039 (STARLINK-35039)

导读 | 豆包AI

STARLINK-35039是美国SpaceX公司星链星座的一颗卫星,于2025年9月3日发射升空,属于星链星座扩容的组网卫星。星链星座是全球规模最大的低轨卫星互联网项目,旨在为全球提供高速宽带互联接入服务,填补偏远地区网络覆盖空白,这款卫星将进一步完善星链星座的全球服务能力,提升星座整体的通信覆盖和容量,支撑星链面向全球用户的稳定卫星互联网服务。

基本信息
目录编号:
65451
目录名称:
STARLINK-35039
国际标识:
2025-194T
轨道中心:
EARTH
卫星名称:
星链-35039
卫星全名:
星链-35039 (STARLINK-35039)
卫星状态:
在轨 (已飞行238 天)
发射日期:
2025-09-03 UTC
国别 :
美国 (US)
星等 :
--
轨道信息
数据来源 国际轨道数据 AOE轨道数据
星历时间 2026-04-29T12:03:32+0800
4小时前
查看轨道信息
2026-04-26T07:00:00+0800
3天前
查看轨道信息
半长轴 6927.645km 6927.663km
偏心率 0.0002386 0.0001733
轨道倾角 97.559° 97.575°
近地点辐角 85.385° 72.825°
升交点赤经 334.115° 330.969°
平近点角 274.765° 174.668°
近地点 547.855km 548.325km
远地点 551.161km 550.727km
周期 95.640分钟 95.640分钟
每日圈数 15.056512 15.056452
详细信息
固有亮度:
5
最大亮度:
2.5
卫星平台:
Starlink V1.0
覆盖范围:
全球
运营商:
太空探索技术公司
运营商所在国:
美国
制造商(研发单位):
太空探索技术公司
制造商所在国:
美国
使用方式:
暂无
卫星简介
Starlink 计划是 SpaceX 推出的全球卫星互联网项目,通过发射低轨道卫星,为全球尤其是偏远地区提供高速、低延迟的互联网服务。自 2019 年起,Starlink 已部署数千颗卫星,旨在缩小全球数字鸿沟,推动互联网普及。该项目还为军事、航空等行业提供通信支持,带来广泛经济效益。
2D轨道图
3D轨道图
轨道高度分析图
轨道倾角分析图
轨道综合分析图
查看轨道综合分析图